N2UGS-WX Weather Reports


Display with metric or nautical units.
time (UTC)temp
F
wind
direction
speed
MPH
gust
MPH
rain 1hr
in
rain 24hr
in
rain mn
in
humidity
%
barometer
mb
20260507032503 43 295 0.0 0.0 0.00 0.00 0.51 93 1013.2
20260507031003 43 271 2.0 2.0 0.00 0.00 0.51 93 1013.5
20260507025502 43 190 1.0 1.0 0.00 0.00 0.51 93 1013.5
20260507023902 43 312 0.0 0.0 0.00 0.00 0.51 93 1013.2
20260507022402 43 265 0.0 0.0 0.00 0.00 0.51 93 1013.2
20260507020902 43 302 0.0 0.0 0.00 0.00 0.51 93 1013.5
20260507015402 43 338 0.0 0.0 0.00 0.00 0.51 93 1013.9
20260507013902 43 297 0.0 0.0 0.00 0.00 0.51 92 1013.5
20260507012402 43 282 0.0 0.0 0.00 0.00 0.51 92 1013.5
20260507011002 43 305 0.0 0.0 0.00 0.00 0.51 91 1013.5
20260507005401 43 301 0.0 0.0 0.00 0.00 0.51 91 1013.2
20260507004001 43 285 0.0 0.0 0.00 0.00 0.51 91 1013.2
20260507002403 43 216 0.0 0.0 0.00 0.00 0.51 90 1012.9
20260507000902 43 1 0.0 0.0 0.00 0.00 0.51 90 1012.9
20260506235901 43 53 2.0 3.0 0.00 0.00 0.51 90 1012.5
20260506234502 43 63 0.0 3.0 0.00 0.00 0.51 90 1012.9
20260506232902 43 30 2.0 3.0 0.00 0.00 0.51 91 1012.5
20260506231502 43 320 3.0 5.0 0.00 0.00 0.51 91 1012.5
20260506230401 43 31 4.0 6.0 0.00 0.00 0.51 92 1012.5
20260506224902 43 92 2.0 3.0 0.00 0.00 0.51 93 1012.2
20260506223402 43 334 4.0 5.0 0.00 0.00 0.51 94 1011.9
20260506221902 43 21 5.0 8.0 0.00 0.00 0.51 94 1011.9
20260506220402 43 323 2.0 7.0 0.00 0.00 0.51 95 1011.5
20260506215001 43 348 6.0 9.0 0.00 0.00 0.51 96 1011.5
20260506213902 43 351 4.0 10.0 0.00 0.00 0.51 95 1011.5
20260506212502 43 343 4.0 10.0 0.00 0.00 0.51 95 1011.2
20260506211501 43 300 5.0 11.0 0.00 0.00 0.51 94 1011.2
20260506210003 45 336 7.0 10.0 0.00 0.00 0.51 92 1010.8
20260506204902 47 2 12.0 12.0 0.00 0.00 0.51 88 1010.5
20260506203401 51 327 7.0 7.0 0.00 0.00 0.51 80 1010.5
20260506202002 52 264 6.0 9.0 0.00 0.00 0.51 77 1010.2
20260506200502 52 166 6.0 10.0 0.00 0.00 0.51 76 1010.2
20260506195402 53 328 3.0 9.0 0.00 0.00 0.51 76 1010.2
20260506194402 54 235 6.0 6.0 0.00 0.00 0.51 75 1010.2
20260506193002 52 240 5.0 7.0 0.00 0.00 0.51 81 1010.2
20260506191503 52 313 1.0 4.0 0.00 0.00 0.51 79 1010.2
20260506190003 54 313 0.0 2.0 0.00 0.00 0.51 74 1009.8
20260506184501 55 92 0.0 2.0 0.00 0.00 0.51 75 1009.8
20260506183002 54 94 2.0 3.0 0.00 0.00 0.51 79 1010.2
20260506181502 53 6 0.0 0.0 0.00 0.00 0.51 80 1010.2
20260506180501 53 26 0.0 1.0 0.00 0.00 0.51 79 1010.2
20260506175002 53 67 1.0 3.0 0.00 0.00 0.51 80 1010.2
20260506174001 53 28 0.0 0.0 0.00 0.00 0.51 81 1010.2
20260506172502 53 264 0.0 0.0 0.00 0.00 0.51 83 1010.2
20260506171501 52 235 1.0 2.0 0.00 0.00 0.51 87 1010.2
20260506170003 50 123 0.0 0.0 0.00 0.00 0.51 90 1010.2
20260506164502 49 48 0.0 4.0 0.00 0.00 0.51 91 1010.2
20260506163003 49 43 0.0 3.0 0.00 0.00 0.51 93 1009.8
20260506161502 49 28 0.0 3.0 0.00 0.00 0.51 93 1010.2
20260506160003 48 315 0.0 3.0 0.00 0.00 0.51 93 1010.2
20260506154502 49 12 0.0 0.0 0.00 0.00 0.51 95 1010.2
20260506153004 50 65 0.0 0.0 0.00 0.00 0.51 95 1009.8
20260506152001 50 11 0.0 2.0 0.01 0.00 0.51 97 1009.8
20260506150503 49 353 0.0 3.0 0.01 0.00 0.51 97 1009.8
20260506145502 49 284 0.0 3.0 0.02 0.00 0.51 98 1009.8
20260506143901 49 9 0.0 1.0 0.02 0.00 0.51 99 1009.5
20260506142402 47 154 0.0 2.0 0.01 0.00 0.50 98 1009.8
20260506140902 46 67 1.0 1.0 0.01 0.00 0.50 99 1009.5
20260506135402 46 81 0.0 0.0 0.00 0.00 0.49 99 1009.5
20260506133902 46 56 0.0 0.0 0.00 0.00 0.49 99 1009.1
20260506132402 46 96 1.0 1.0 0.01 0.00 0.49 99 1009.1
20260506131402 45 125 0.0 3.0 0.02 0.00 0.49 99 1009.1
20260506130002 45 120 0.0 4.0 0.02 0.00 0.49 99 1008.8
20260506124901 45 73 2.0 4.0 0.02 0.00 0.49 99 1009.1
20260506123503 45 91 0.0 3.0 0.02 0.00 0.48 99 1009.1
20260506122401 44 57 0.0 3.0 0.03 0.00 0.48 99 1008.8
20260506120902 44 175 2.0 5.0 0.02 0.00 0.47 99 1008.8
20260506115502 44 94 0.0 5.0 0.03 0.00 0.47 99 1008.5
20260506114002 45 115 2.0 4.0 0.03 0.00 0.46 99 1008.8
20260506112402 45 123 3.0 8.0 0.02 0.00 0.45 99 1008.5
20260506111002 45 45 0.0 2.0 0.02 0.00 0.44 100 1008.8
20260506105502 45 67 2.0 3.0 0.03 0.00 0.44 100 1008.8
20260506103902 45 30 1.0 2.0 0.03 0.00 0.43 99 1008.5
20260506102503 45 149 2.0 3.0 0.05 0.00 0.42 99 1008.1
20260506101401 45 104 0.0 2.0 0.06 0.00 0.42 99 1008.5
20260506100002 45 105 3.0 4.0 0.06 0.00 0.41 99 1008.8
20260506094502 45 58 2.0 4.0 0.07 0.00 0.39 99 1009.1
20260506093502 45 22 3.0 6.0 0.06 0.00 0.38 99 1008.8
20260506092003 45 67 5.0 6.0 0.06 0.00 0.36 99 1008.8
20260506090902 45 85 3.0 7.0 0.07 0.00 0.36 99 1008.8
20260506085502 46 65 1.0 5.0 0.06 0.00 0.33 99 1008.5
20260506083902 46 70 4.0 6.0 0.06 0.00 0.32 99 1008.5
20260506082901 46 114 2.0 5.0 0.06 0.00 0.31 99 1008.5
20260506081502 46 40 3.0 4.0 0.06 0.00 0.28 99 1008.5
20260506080402 47 82 2.0 5.0 0.05 0.00 0.28 99 1008.5
20260506073501 47 53 1.0 4.0 0.06 0.00 0.25 99 1008.5
20260506071902 47 70 1.0 3.0 0.06 0.00 0.24 99 1008.5
20260506070502 47 123 2.0 3.0 0.05 0.00 0.22 99 1008.8
20260506061502 48 65 3.0 3.0 0.05 0.00 0.18 99 1008.5
20260506044502 48 337 0.0 0.0 0.06 0.00 0.06 98 1009.5
20260506043002 48 359 0.0 0.0 0.03 0.00 0.03 98 1009.1
20260506041502 48 20 0.0 0.0 0.02 0.00 0.01 98 1009.1
20260506040003 48 340 0.0 2.0 0.02 0.00 0.00 98 1009.1
20260506035502 48 31 0.0 1.0 0.04 0.00 0.67 98 1009.1
20260506034002 48 355 0.0 2.0 0.05 0.00 0.67 98 1009.1